ONEWEB-0093 (45444 NORAD) Tracking and Keplerian Element Data

This shows tracking and keplerian element data for the satellite.

Feedback or suggestion? Click here.




ElementValue
Catalog45444
NameONEWEB-0093
Epoch Orbit3217
Epoch Day297.91667824
Epoch Year2020
RAAN71.8111
Inclination87.8019
Eccentricity0.0026546
Argument of Perigee238.3664
Mean Anonmoly89.3951
Mean Motion13.97547057
Decay Rate-0.00017493
L11 45444U 20020W 20297.91667824 -.00017493 00000-0 -12441-1 0 9997
L22 45444 87.8019 71.8111 0026546 238.3664 89.3951 13.97547057 32176

Live tracking and technical data element details for ONEWEB-0093 (NORAD 45444). ONEWEB-0093 can be tracked NOW for your location showing map with azimuth and elevation plus other details from your city location.

Track the satellite on the map from your city or location and see movement details for azimuth, elevation, latitude, longitude, range, height, and movement on the map or in text.







IsCatalogInMostPopularTable: catalog: 45444, numindb: 45
Update: records affected: 1



GetName: 45444 ONEWEB-0093

Hit Count: updated at: Sat, 24 Oct 2020 22:40:12 GMT